Decorah, IA

2:26 PM CST on January 18, 2017 (GMT -0600)
Decorah Municipal

Weather History for KDEH - January, 2014

Change the Weather History Date:

Wednesday, January 22, 2014

  Actual Average Record
Temperature  
Mean Temperature 3 °F -  
Max Temperature 10 °F 28 °F 28 °F (2015)
Min Temperature -4 °F 11 °F 17 °F (2016)
Degree Days  
Heating Degree Days 62    
Moisture  
Dew Point -6 °F    
Average Humidity 66    
Maximum Humidity 85    
Minimum Humidity 48    
Precipitation  
Precipitation 0.00 in - - ()
Sea Level Pressure  
Sea Level Pressure 30.03 in    
Wind  
Wind Speed 10 mph (NW)    
Max Wind Speed 26 mph    
Max Gust Speed 39 mph    
Visibility 8 miles    
Events Snow    
Averages and records for this station are not official NWS values.
T = Trace of Precipitation, MM = Missing Value Source: NWS Daily Summary

Daily Weather History Graph

Daily Weather History Graph

Search for Another Location

Airport or City:

Trip Planner

Search our weather history database for the weather conditions in past years. The results will help you decide how hot, cold, wet, or windy it might be!

Date:

Astronomy

Jan. 22, 2014 Rise Set
Actual Time 7:31 AM CST 5:05 PM CST
Civil Twilight 7:00 AM CST 5:36 PM CST
Nautical Twilight 6:25 AM CST 6:11 PM CST
Astronomical Twilight 5:52 AM CST 6:45 PM CST
Moon 11:51 PM CST (1/22) 10:21 AM CST (1/22)
Length of Visible Light 10h 36m
Length of Day
9h 33m
Waning Gibbous, 65% of the Moon is Illuminated
Jan 22
Waning Gibbous
Jan 23
Last Quarter
Jan 30
New
Feb 6
First Quarter
Feb 14
Full

Hourly Weather History & Observations

Time (CST) Temp. Windchill Dew Point Humidity Pressure Visibility Wind Dir Wind Speed Gust Speed Precip Events Conditions
12:15 AM 3.2 °F -7.8 °F -5.8 °F 66% 30.01 in 10.0 mi Variable 5.8 mph 11.5 mph N/A   Overcast
12:35 AM 3.2 °F -10.3 °F -4.0 °F 72% 30.00 in 10.0 mi South 8.1 mph - N/A   Overcast
12:55 AM 3.2 °F -6.2 °F -4.0 °F 72% 30.00 in 10.0 mi Variable 4.6 mph - N/A   Overcast
1:15 AM 5.0 °F -4.1 °F -2.2 °F 72% 29.99 in 10.0 mi Variable 4.6 mph - N/A   Overcast
1:35 AM 5.0 °F -8.1 °F -2.2 °F 72% 29.97 in 10.0 mi South 8.1 mph - N/A   Overcast
1:55 AM 5.0 °F -8.1 °F -2.2 °F 72% 29.96 in 10.0 mi SSW 8.1 mph - N/A   Overcast
2:15 AM 5.0 °F -5.6 °F -2.2 °F 72% 29.96 in 10.0 mi SSW 5.8 mph - N/A   Overcast
2:35 AM 5.0 °F -6.9 °F -2.2 °F 72% 29.95 in 10.0 mi Variable 6.9 mph 13.8 mph N/A Snow Light Snow
2:55 AM 5.0 °F -8.1 °F -2.2 °F 72% 29.94 in 7.0 mi SSW 8.1 mph - N/A   Overcast
3:15 AM 5.0 °F -8.1 °F -0.4 °F 78% 29.93 in 3.0 mi SSW 8.1 mph - N/A Snow Light Snow
3:35 AM 5.0 °F -4.1 °F -0.4 °F 78% 29.93 in 5.0 mi SW 4.6 mph - N/A Snow Light Snow
3:55 AM 6.8 °F -6.9 °F -0.4 °F 72% 29.92 in 4.0 mi SSW 9.2 mph - N/A Snow Light Snow
4:15 AM 6.8 °F -3.5 °F -0.4 °F 72% 29.91 in 5.0 mi Variable 5.8 mph - N/A Snow Light Snow
4:35 AM 6.8 °F -0.1 °F -0.4 °F 72% 29.91 in 5.0 mi Variable 3.5 mph - N/A Snow Light Snow
4:55 AM 6.8 °F -0.1 °F 1.4 °F 79% 29.91 in 5.0 mi Variable 3.5 mph - N/A Snow Light Snow
5:15 AM 6.8 °F -4.8 °F 1.4 °F 79% 29.91 in 8.0 mi WSW 6.9 mph - N/A Snow Light Snow
5:35 AM 6.8 °F -3.5 °F 1.4 °F 79% 29.90 in 9.0 mi West 5.8 mph - N/A Snow Light Snow
5:55 AM 6.8 °F - 1.4 °F 79% 29.91 in 9.0 mi Calm Calm - N/A Snow Light Snow
6:15 AM 6.8 °F -0.1 °F 1.4 °F 79% 29.91 in 10.0 mi Variable 3.5 mph - N/A   Overcast
6:35 AM 8.6 °F -2.6 °F 3.2 °F 79% 29.91 in 10.0 mi Variable 6.9 mph - N/A   Overcast
6:55 AM 8.6 °F 2.0 °F 3.2 °F 79% 29.91 in 10.0 mi West 3.5 mph - N/A   Overcast
7:15 AM 6.8 °F -2.0 °F 3.2 °F 85% 29.91 in 10.0 mi WNW 4.6 mph - N/A   Overcast
7:35 AM 6.8 °F -4.8 °F 3.2 °F 85% 29.91 in 10.0 mi Variable 6.9 mph - N/A   Scattered Clouds
7:55 AM 6.8 °F -4.8 °F 1.4 °F 79% 29.91 in 10.0 mi WNW 6.9 mph - N/A   Scattered Clouds
8:15 AM 6.8 °F -6.9 °F 1.4 °F 79% 29.91 in 10.0 mi WNW 9.2 mph - N/A   Overcast
8:35 AM 6.8 °F -7.8 °F 1.4 °F 79% 29.91 in 10.0 mi WNW 10.4 mph - N/A   Overcast
8:55 AM 6.8 °F -6.9 °F -0.4 °F 72% 29.92 in 10.0 mi WNW 9.2 mph 17.3 mph N/A   Overcast
9:15 AM 6.8 °F -6.9 °F -0.4 °F 72% 29.93 in 9.0 mi WNW 9.2 mph 21.9 mph N/A Snow Light Snow
9:35 AM 6.8 °F -6.9 °F -0.4 °F 72% 29.94 in 5.0 mi WNW 9.2 mph 21.9 mph N/A Snow Light Snow
9:55 AM 6.8 °F -8.6 °F -0.4 °F 72% 29.94 in 4.0 mi NW 11.5 mph 18.4 mph N/A Snow Light Snow
10:15 AM 8.6 °F -7.7 °F -0.4 °F 67% 29.95 in 4.0 mi NW 13.8 mph 24.2 mph N/A Snow Light Snow
10:35 AM 8.6 °F -9.5 °F -0.4 °F 67% 29.95 in 6.0 mi NW 17.3 mph 24.2 mph N/A   Haze
10:55 AM 8.6 °F -6.3 °F -0.4 °F 67% 29.95 in 8.0 mi NW 11.5 mph 23.0 mph N/A   Overcast
11:15 AM 8.6 °F -10.0 °F -2.2 °F 62% 29.95 in 6.0 mi NW 18.4 mph 27.6 mph N/A   Haze
11:40 AM 8.6 °F -7.0 °F -0.4 °F 67% 29.93 in 6.0 mi WNW 12.7 mph 24.2 mph N/A   Haze
11:55 AM 8.6 °F -10.0 °F -0.4 °F 67% 29.93 in 5.0 mi NW 18.4 mph 25.3 mph N/A Snow Light Snow
12:15 PM 8.6 °F -8.9 °F -0.4 °F 67% 29.94 in 6.0 mi NNW 16.1 mph 25.3 mph N/A Snow Light Snow
12:35 PM 8.6 °F -10.0 °F -2.2 °F 62% 29.94 in 2.5 mi NW 18.4 mph 27.6 mph N/A Snow Light Snow
12:55 PM 10.4 °F -8.2 °F -4.0 °F 52% 29.94 in 7.0 mi NW 19.6 mph 28.8 mph N/A   Mostly Cloudy
1:15 PM 10.4 °F -8.2 °F -5.8 °F 48% 29.94 in 9.0 mi NW 19.6 mph 26.5 mph N/A   Overcast
1:35 PM 8.6 °F -10.0 °F -4.0 °F 57% 29.94 in 7.0 mi NW 18.4 mph 29.9 mph N/A   Mostly Cloudy
1:55 PM 6.8 °F -12.4 °F -2.2 °F 67% 29.95 in 2.0 mi NNW 18.4 mph 29.9 mph N/A Snow Light Snow
2:15 PM 6.8 °F -12.4 °F -4.0 °F 61% 29.97 in 4.0 mi NNW 18.4 mph 26.5 mph N/A Snow Light Snow
2:35 PM 6.8 °F -13.4 °F -5.8 °F 56% 29.98 in 7.0 mi NNW 20.7 mph 27.6 mph N/A   Mostly Cloudy
2:55 PM 5.0 °F -14.7 °F -5.8 °F 61% 29.99 in 8.0 mi NNW 18.4 mph 27.6 mph N/A   Mostly Cloudy
3:15 PM 6.8 °F -13.8 °F -5.8 °F 56% 30.00 in 6.0 mi NW 21.9 mph 31.1 mph N/A Snow Light Snow
3:35 PM 5.0 °F -17.9 °F -5.8 °F 61% 30.02 in 4.0 mi NNW 26.5 mph 32.2 mph N/A Snow Light Snow
3:55 PM 5.0 °F -15.2 °F -5.8 °F 61% 30.03 in 4.0 mi NNW 19.6 mph 31.1 mph N/A   Haze
4:15 PM 3.2 °F -18.1 °F -4.0 °F 72% 30.05 in 0.8 mi NNW 20.7 mph 29.9 mph N/A Snow Light Snow
4:35 PM 1.4 °F -19.4 °F -5.8 °F 72% 30.07 in 2.0 mi NNW 18.4 mph 33.4 mph N/A Snow Light Snow
4:55 PM 1.4 °F -19.9 °F -9.4 °F 61% 30.09 in 4.0 mi NNW 19.6 mph 31.1 mph N/A   Haze
5:15 PM 1.4 °F -21.4 °F -11.2 °F 56% 30.11 in 6.0 mi NNW 23.0 mph 31.1 mph N/A   Haze
5:35 PM -0.4 °F -24.3 °F -11.2 °F 60% 30.12 in 5.0 mi NNW 24.2 mph 39.1 mph N/A   Haze
5:55 PM -0.4 °F -23.3 °F -11.2 °F 60% 30.13 in 9.0 mi NNW 21.9 mph - N/A   Mostly Cloudy
6:15 PM -0.4 °F -21.7 °F -13.0 °F 55% 30.15 in 9.0 mi NNW 18.4 mph 26.5 mph N/A   Mostly Cloudy
6:35 PM -2.2 °F -24.1 °F -13.0 °F 60% 30.16 in 10.0 mi NNW 18.4 mph 24.2 mph N/A   Partly Cloudy
6:55 PM -2.2 °F -22.2 °F -14.8 °F 55% 30.19 in 10.0 mi NNW 15.0 mph 20.7 mph N/A   Partly Cloudy
7:15 PM -2.2 °F -22.2 °F -14.8 °F 55% 30.20 in 10.0 mi NNW 15.0 mph - N/A   Partly Cloudy
7:35 PM -2.2 °F -22.2 °F -14.8 °F 55% 30.21 in 10.0 mi NNW 15.0 mph 24.2 mph N/A   Partly Cloudy
7:55 PM -4.0 °F -26.4 °F -16.6 °F 55% 30.22 in 10.0 mi NW 18.4 mph 25.3 mph N/A   Clear
8:15 PM -4.0 °F -25.2 °F -16.6 °F 55% 30.24 in 10.0 mi NW 16.1 mph 21.9 mph N/A   Partly Cloudy
8:35 PM -4.0 °F -27.0 °F -16.6 °F 55% 30.25 in 10.0 mi NNW 19.6 mph - N/A   Partly Cloudy
8:55 PM -4.0 °F -25.8 °F -16.6 °F 55% 30.25 in 10.0 mi NW 17.3 mph 23.0 mph N/A   Clear
9:20 PM -4.0 °F -23.7 °F -16.6 °F 55% 30.27 in 10.0 mi NNW 13.8 mph 24.2 mph N/A   Clear
9:35 PM -4.0 °F -24.5 °F -16.6 °F 55% 30.28 in 10.0 mi NW 15.0 mph 21.9 mph N/A   Clear
9:55 PM -4.0 °F -23.7 °F -16.6 °F 55% 30.29 in 10.0 mi NW 13.8 mph - N/A   Clear
10:15 PM -4.0 °F -23.7 °F -16.6 °F 55% 30.29 in 10.0 mi NNW 13.8 mph 20.7 mph N/A   Clear
10:35 PM -4.0 °F -25.2 °F -16.6 °F 55% 30.30 in 10.0 mi NW 16.1 mph 24.2 mph N/A   Clear
10:55 PM -4.0 °F -23.0 °F -16.6 °F 55% 30.31 in 10.0 mi NNW 12.7 mph 20.7 mph N/A   Clear
11:15 PM -4.0 °F -23.0 °F -16.6 °F 55% 30.32 in 10.0 mi NW 12.7 mph - N/A   Clear
11:35 PM -4.0 °F -23.7 °F -16.6 °F 55% 30.33 in 10.0 mi NNW 13.8 mph - N/A   Clear
11:55 PM -4.0 °F -25.2 °F -16.6 °F 55% 30.34 in 10.0 mi NNW 16.1 mph 25.3 mph N/A   Clear